Retour au catalogue

FENGYUN 1C DEB

ActifSSO
NORAD 36244·DEBRIS·🇨🇳 China

Lancé May 10, 1999 depuis Taiyuan Satellite Launch Center

Loading…

Prochains Passages (prochaines 24 heures)

TLE

FraisSource: Space-Track

Époque: Sep 13, 2026, 06:36 UTC

1 36244U 99025DVV 26256.27528916  .00002251  00000-0  93680-3 0  9994
2 36244  98.9403  17.1345 0049217 211.5977 148.2245 14.26744986958919

Suivez FENGYUN 1C DEB en temps réel avec AllMySat

Download on the App Store